Location: Kerguer�zec
(48.4509°N, 4.7600°W)
Time: 13:14:29
(UTC+00:00)

Spot 2 Rocket - Pass Details

Date: 09 April 2020
Orbit: 757 x 773 km, 98.6° (Epoch: 27 May)

Event Time Altitude Azimuth Distance (km) Brightness Sun altitude
Exits shadow 20:22:15 19° 117° (ESE) 1,767 4.7 -13.2°
Maximum altitude 20:25:12 35° 65° (ENE) 1,241 4.3 -13.7°
Drops below altitude 10° 20:29:47 10° 1° (N) 2,323 6.4 -14.3°
Sets 20:32:16 0° 353° (N) 3,252 7.3 -14.7°
